Location: Brachbach
(49.1847°N, 9.7240°E)
Time: 13:25:49
(UTC+00:00)

CZ-2C R/B - Pass Details

Date: 12 August 2024
Orbit: 782 x 869 km, 98.3° (Epoch: 15 September)

Event Time Altitude Azimuth Distance (km) Brightness Sun altitude
Exits shadow 01:52:42 32° 221° (SW) 1,428 3.3 -18.2°
Maximum altitude 01:54:30 41° 263° (W) 1,211 3.2 -18.1°
Drops below altitude 10° 01:59:38 10° 333° (NNW) 2,454 5.4 -17.5°
Sets 02:02:08 0° 341° (NNW) 3,378 6.3 -17.3°
